Other Public Products
Issued by NWS Charleston, SC

Current Version | Previous Version | Graphics & Text | Print | Product List | Glossary On
Versions: 1 2 3 4 5 6 7 8 9 10 11 12 13 14 15 16 17 18 19 20 21 22 23 24 25 26 27 28 29 30 31 32 33 34 35 36 37 38 39 40 41 42 43 44 45 46 47 48 49 50
000 FPUS82 KCHS 211012 OPUCHS TEST...KCHS/KSAV Gateway Observations...TEST National Weather Service Charleston SC 600 AM EDT FRI JUL 21 2017 NOTE: "fair" indicates few or no clouds below 12,000 feet with no significant weather and/or obstructions to visibility. SCZ050-WAZ558-NCZ071-TXZ119-213-PAZ071-DCZ001-FLZ074-172-MI076- NYZ176-178-MAZ016-IL014-TNZ027-NJZ106-GAZ044-MD014-211100- ...Gateway Observations for Charleston International... CITY SKY/WX TMP DP RH WIND PRES REMARKS Chas Airport PTCLDY 72 69 90 S3 30.02R Seattle PTCLDY 57 53 86 CALM 30.14S Charlotte PTCLDY 75 70 84 CALM 30.02R Dallas DFW CLEAR 83 73 72 S9 29.97F Dallas Love CLEAR 84 71 65 S8 29.99S Philladelphia PTCLDY 80 69 69 NW3 29.90R Wash National MOCLDY 82 72 71 SW3 29.93R Baltimore MOCLDY 76 70 82 W5 29.91R Miami PTCLDY 81 76 84 CALM 30.02S Detroit PTCLDY 73 70 90 N5 29.96R Newark MOCLDY 77 68 73 NW3 29.89R Laguardia PTCLDY 78 69 73 NW9 29.88R J F K PTCLDY 79 69 71 NW10 29.89R Boston Logan PTCLDY 73 62 68 W7 29.84R Ft. Lauderdale PTCLDY 81 78 91 CALM 30.01S Chicago O`Hare CLOUDY 75 69 81 W7 29.99R Chicago Midway CLOUDY 75 71 87 W5 29.99R Houston Bush PTCLDY 78 74 87 CALM 30.01R Houston Hobby CLEAR 79 74 84 CALM 30.00S Nashville CLOUDY 76 73 91 CALM 30.04R Atlanta PTCLDY 77 73 87 NW6 30.03R $$ GAZ044-118-TXZ119-213-NCZ071-DCZ001-MDZ014-506-PAZ021-071-NJZ106- NYZ176-178-MAZ106-OHZ011-021-055-MIZ076-KYZ091-ILZ014-INZ047- MNZ060-ONZ431-211100- ...Gateway Observations for Savannah International... CITY SKY/WX TMP DP RH WIND PRES REMARKS Savannah Arpt CLEAR 73 69 87 S3 30.02S Atlanta PTCLDY 77 73 87 NW6 30.03R Charlotte PTCLDY 75 70 84 CALM 30.02R Dallas DFW CLEAR 83 73 72 S9 29.97F Houston Bush PTCLDY 78 74 87 CALM 30.01R Wash National MOCLDY 82 72 71 SW3 29.93R Wash Dulles MOCLDY 73 68 84 CALM 29.94R Baltimore MOCLDY 76 70 82 W5 29.91R Philadelphia PTCLDY 80 69 69 NW3 29.90R Newark MOCLDY 77 68 73 NW3 29.89R Laguardia PTCLDY 78 69 73 NW9 29.88R J F K PTCLDY 79 69 71 NW10 29.89R Boston PTCLDY 73 62 68 W7 29.84R Pittsburg PTCLDY 72 71 97 CALM 29.98S FOG Akron MOCLDY 72 68 87 CALM 29.99R Cleveland PTCLDY 73 69 87 CALM 29.98R Cincinnati CLOUDY 77 75 93 SW6 29.99S Columbus CLOUDY 75 74 96 S5 29.97R Detroit PTCLDY 73 70 90 N5 29.96R Chicago O`Hare CLOUDY 75 69 81 W7 29.99R Minneapolis PTCLDY 70 67 90 SE7 29.92F Indianapolis CLOUDY 78 74 87 NW22G29 30.01R THUNDER Toronto Canada PTCLDY 68 64 88 SW2 29.91R $$

USA.gov is the U.S. government's official web portal to all federal, state and local government web resources and services.